TimeCST,TemperatureF,Dew PointF,Humidity,Sea Level PressureIn,VisibilityMPH,Wind Direction,Wind SpeedMPH,Gust SpeedMPH,PrecipitationIn,Events,Conditions,WindDirDegrees,DateUTC
12:05 AM,73.4,66.2,78,29.80,6.0,WSW,10.4,19.6,N/A,,Haze,250,2013-02-13 06:05:00
12:18 AM,73.4,66.2,78,29.79,6.0,WSW,9.2,-,0.00,Rain,Light Rain,250,2013-02-13 06:18:00
12:56 AM,73.0,64.9,76,29.75,6.0,SW,6.9,-,0.00,,Haze,230,2013-02-13 06:56:00
1:41 AM,73.4,64.4,73,29.77,6.0,WSW,9.2,-,N/A,,Haze,240,2013-02-13 07:41:00
1:56 AM,73.0,64.9,76,29.75,5.0,WSW,9.2,-,N/A,,Haze,240,2013-02-13 07:56:00
2:03 AM,73.4,64.4,73,29.79,5.0,SW,10.4,-,N/A,,Haze,230,2013-02-13 08:03:00
2:38 AM,73.4,64.4,73,29.79,5.0,WSW,11.5,-,N/A,,Haze,250,2013-02-13 08:38:00
2:56 AM,72.0,64.0,76,29.75,6.0,WSW,10.4,-,N/A,,Haze,250,2013-02-13 08:56:00
3:56 AM,71.1,63.0,75,29.77,6.0,WSW,6.9,-,N/A,,Haze,250,2013-02-13 09:56:00
4:14 AM,69.8,60.8,73,29.82,6.0,NW,15.0,24.2,N/A,,Haze,310,2013-02-13 10:14:00
4:22 AM,68.0,60.8,78,29.83,7.0,NW,15.0,23.0,N/A,,Mostly Cloudy,310,2013-02-13 10:22:00
4:29 AM,66.2,59.0,78,29.83,7.0,WNW,13.8,21.9,N/A,,Mostly Cloudy,300,2013-02-13 10:29:00
4:43 AM,64.4,57.2,77,29.84,9.0,WNW,10.4,19.6,N/A,,Scattered Clouds,300,2013-02-13 10:43:00
4:56 AM,64.0,55.9,75,29.80,9.0,WNW,8.1,-,N/A,,Clear,300,2013-02-13 10:56:00
5:56 AM,59.0,55.0,87,29.83,10.0,WNW,9.2,-,N/A,,Scattered Clouds,290,2013-02-13 11:56:00
6:56 AM,57.0,51.1,81,29.84,10.0,WNW,6.9,-,N/A,,Mostly Cloudy,290,2013-02-13 12:56:00
7:56 AM,59.0,51.1,75,29.86,10.0,NW,15.0,-,N/A,,Mostly Cloudy,310,2013-02-13 13:56:00
8:56 AM,59.0,48.9,69,29.87,10.0,NW,9.2,-,N/A,,Mostly Cloudy,320,2013-02-13 14:56:00
9:56 AM,62.1,48.0,60,29.88,10.0,NW,12.7,-,N/A,,Mostly Cloudy,310,2013-02-13 15:56:00
10:56 AM,55.0,45.0,69,29.91,10.0,WNW,12.7,-,N/A,,Overcast,300,2013-02-13 16:56:00
11:25 AM,55.4,44.6,67,29.94,10.0,WNW,10.4,-,0.00,Rain,Light Rain,300,2013-02-13 17:25:00
11:56 AM,54.0,46.0,75,29.90,10.0,WNW,11.5,-,0.00,Rain,Light Rain,300,2013-02-13 17:56:00
12:56 PM,53.1,48.0,83,29.88,10.0,NW,6.9,-,0.00,Rain,Light Rain,320,2013-02-13 18:56:00
1:03 PM,53.6,48.2,82,29.93,10.0,NW,4.6,-,0.00,,Overcast,310,2013-02-13 19:03:00
1:34 PM,53.6,46.4,77,29.93,10.0,NW,8.1,-,0.00,,Overcast,310,2013-02-13 19:34:00
1:56 PM,52.0,46.0,80,29.90,7.0,NW,10.4,-,0.00,Rain,Light Rain,310,2013-02-13 19:56:00
2:56 PM,50.0,46.0,86,29.91,4.0,NW,11.5,-,0.02,Rain,Light Rain,310,2013-02-13 20:56:00
3:09 PM,48.2,44.6,87,29.96,3.0,NW,15.0,23.0,0.03,Rain,Light Rain,320,2013-02-13 21:09:00
3:56 PM,46.9,45.0,93,29.91,4.0,NNW,6.9,-,0.08,Rain,Light Rain,330,2013-02-13 21:56:00
4:22 PM,46.4,44.6,93,29.96,4.0,NNW,5.8,-,N/A,Rain,Light Rain,330,2013-02-13 22:22:00
4:56 PM,46.9,46.0,97,29.94,10.0,NW,5.8,-,0.04,,Mostly Cloudy,320,2013-02-13 22:56:00
5:44 PM,46.4,46.4,100,29.97,10.0,NW,5.8,-,N/A,,Mostly Cloudy,310,2013-02-13 23:44:00
5:56 PM,46.9,46.0,97,29.95,10.0,NW,4.6,-,N/A,,Mostly Cloudy,310,2013-02-13 23:56:00
6:56 PM,48.0,45.0,89,29.96,10.0,WNW,4.6,-,N/A,,Mostly Cloudy,300,2013-02-14 00:56:00
7:56 PM,46.9,44.1,90,29.97,10.0,NW,3.5,-,N/A,,Mostly Cloudy,310,2013-02-14 01:56:00
8:56 PM,48.0,44.1,86,29.99,10.0,WNW,3.5,-,N/A,,Mostly Cloudy,300,2013-02-14 02:56:00
9:56 PM,46.9,43.0,86,30.01,10.0,WNW,3.5,-,N/A,,Mostly Cloudy,300,2013-02-14 03:56:00
10:56 PM,46.9,43.0,86,30.01,10.0,Variable,3.5,-,N/A,,Mostly Cloudy,0,2013-02-14 04:56:00
11:56 PM,46.0,39.9,79,30.03,10.0,North,4.6,-,N/A,,Clear,350,2013-02-14 05:56:00